sat.trackr.live / text

‹ back to catalog

STARLINK-30986

NORAD 58492 · 2023-186V

PAYLOAD ACTIVE UNKNOWN

§ Identity

Operator
Country
US
Launch date
2023-12-03
Launch site
AFETR
Launch vehicle
Mass (kg)
RCS (m²)

Purposes: comms

External: N2YO · Heavens-Above · Gunter

§ Orbital elements

Epoch: 2026-05-24T23:15:40.288320Z

Period
94.27 min
Inclination
43.0042°
Eccentricity
0.0001763
Mean motion
15.27575377 rev/d
Perigee alt
481.9 km
Apogee alt
484.3 km
Semi-major
6,861.2 km
B*
1.4311e-5
RAAN
352.7352°
Arg perigee
271.5781°
Mean anomaly
88.4869°
Rev number
13,755

§ Raw data

STARLINK-309861 58492U 23186V   26144.96921630  .00000131  00000+0  14311-4 0  99992 58492  43.0042 352.7352 0001763 271.5781  88.4869 15.27575377137551

JSON: /api/v1/satellites/58492 · /tle

For live sub-satellite position, see the globe view (requires WebGL).

§ Visibility from observer

Set your observer location to see the next 7 days of passes ≥ 10°. The values pass through the URL so the page stays shareable.

No JS? Fill the form by hand. The geolocation button needs JavaScript.